STARLINK-36847

Last updated on Tue Mar 24 2026 00:02:05 GMT+0000 (Coordinated Universal Time)

1 67910U 26036G 26081.56519972 .00085529 00000+0 14483-2 0 9991 2 67910 43.0008 173.2112 0000925 249.3874 110.6887 15.50570646 5689
UTC large
Height (km)
Speed (km/s)
/
Latitude / Longitude
Inclination (degrees)
Orbital Period (minutes)
Azimuth
Elevation
Range (km)
Doppler Factor

Next 0 passes for location: London (51.5072 / 0.1276)

Sorry there are no passes over London.